Notices

What's New in latest Release from April 7th, 2021:

- Updated Glossary, including Speed of Maximum Gust, and Total Hourly Precipitation

- Updated national and regional climate services offices contacts and prices information

- Addition of station inventory lists for 1981-2010, 1971-2000, and 1961-1990 Normals.

If you haven't already, please take our survey and provide feedback about our website: https://eccc.sondage-survey.ca/f/LanguageSelection.aspx?s=442ca660-fcf1-47c0-95a9-59707d6fd709

Hourly Data Report for November 20, 2019

CARBERRY CS
MANITOBA
Current Station Operator: ECCC - MSC

49°54'20.900" N
99°21'26.800" W
383.50 m
5010547
71170
WZE

Download Data

Hourly Data (November 2019)
Hourly Data Report for November 20, 2019
TIME
LST
Temp Definition
°C
Dew Point Definition
°C
Rel Hum Definition
%
Precip. Amount Definition
mm

Wind Dir Definition
10's deg

Wind Spd Definition
km/h
Visibility Definition
km
Stn Press Definition
kPa
Hmdx Definition


Wind Chill Definition


Weather Definition


00:00 -0.4 -0.4 100 0.0 9 6   96.81   -2 LegendNANA
01:00 -0.6 -0.6 100 0.0 8 5   96.86   -2 LegendNANA
02:00 -0.7 -0.7 100 0.0 7 7   96.87   -3 LegendNANA
03:00 -0.8 -0.8 100 0.0 7 10   96.92   -4 LegendNANA
04:00 -0.8 -1.1 98 0.0 7 10   96.97   -4 LegendNANA
05:00 -1.1 -1.1 100 0.0 7 10   96.99   -5 LegendNANA
06:00 -1.1 -1.2 100 0.0 5 10   97.02   -5 LegendNANA
07:00 -1.4 -1.5 100 0.0 4 15   97.07   -6 LegendNANA
08:00 -1.9 -1.9 100 0.4 3 16   97.10   -7 LegendNANA
09:00 -2.8 -3.2 97 0.5 4 17   97.16   -8 LegendNANA
10:00 -3.6 -3.9 98 0.4 3 15   97.20   -9 LegendNANA
11:00 -3.9 -4.9 93 0.5 2 14   97.27   -9 LegendNANA
12:00 -4.1 -4.8 94 0.3 1 13   97.22   -9 LegendNANA
13:00 -4.3 -5.2 93 0.2 2 13   97.22   -9 LegendNANA
14:00 -4.5 -5.6 92 0.3 1 14   97.25   -10 LegendNANA
15:00 -4.9 -6.2 91 0.2 5 10   97.26   -9 LegendNANA
16:00 -5.0 -6.3 91 0.0 3 11   97.31   -10 LegendNANA
17:00 -5.6 -6.8 92 0.0 3 11   97.36   -10 LegendNANA
18:00 -6.0 -7.7 88 0.0 3 12   97.35   -11 LegendNANA
19:00 -6.3 -7.2 93 0.0 4 8   97.35   -10 LegendNANA
20:00 -6.6 -7.0 97 0.0 4 8   97.42   -10 LegendNANA
21:00 -6.7 -6.7 100 0.0 6 7   97.44   -10 LegendNANA
22:00 -6.8 -6.8 100 0.0 4 8   97.46   -11 LegendNANA
23:00 -7.0 -7.0 100 0.0 1 8   97.44   -11 LegendNANA

Notes on Data Quality.

Legend

  • E = Estimated
  • M = Missing
  • NA = Not Available*
  • [empty] = Indicates an unobserved value
Date modified: